Regional Weather Roundup
Issued by NWS

Home | Current Version | Previous Version | Text Only | Print | Product List | Glossary Off
Versions: 1 2 3 4 5 6 7 8 9 10 11 12 13 14 15 16 17 18 19 20 21 22 23 24 25 26 27 28 29 30 31 32 33 34 35 36 37 38 39 40 41 42 43 44 45 46 47 48 49 50

000
ASUS43 KIND 260359
RWRIN

WEATHER ROUNDUP FOR INDIANA
NATIONAL WEATHER SERVICE INDIANAPOLIS IN
1200 AM EDT TUE MAY 26 2015

NOTE: "FAIR" INDICATES FEW OR NO CLOUDS BELOW 12,000 FEET WITH NO
SIGNIFICANT WEATHER AND/OR OBSTRUCTIONS TO VISIBILITY.

* - STATION DOES NOT REPORT WEATHER SUCH AS PRECIPITATION OR FOG.

+ - STATION NOT QUALITY CONTROLLED BY THE NATIONAL WEATHER SERVICE.
    USE DATA WITH CAUTION...ESPECIALLY DEWPOINT AND RELATIVE
    HUMIDITY OBSERVATIONS.

INZ001>003-010>013-019-020-260500-
NORTHWEST INDIANA

CITY           SKY/WX    TMP DP  RH WIND       PRES   REMARKS
RENSSELAER +   CLEAR     72  64  78 S12       30.03S

$$

LMZ046-743>745-260500-
SOUTHERN LAKE MICHIGAN

STATION/POSITION TIME  TEMP    WIND        PRES    WAVE
                       AIR SEA DIR/SP/G            HT
                 (UTC) (F)     (DEG/KT/KT) (MB)    (FT)
BURNS HARBOR     0300   74     190/ 12/ 15 1015.6R
MICHIGAN CITY    0300   74     170/ 10/ 14   N/A
5NW MICH CITY    0300   65 52  200/ 10/ 12   N/A     1

$$

INZ004-005-014>016-021>024-260500-
NORTH CENTRAL INDIANA

CITY           SKY/WX    TMP DP  RH WIND       PRES   REMARKS
GOSHEN         CLOUDY    71  62  73 S14       30.02R
SOUTH BEND     PTCLDY    72  62  71 SW10      30.02R

$$

INZ006>009-017-018-025>027-260500-
NORTHEAST INDIANA

CITY           SKY/WX    TMP DP  RH WIND       PRES   REMARKS
ANGOLA *+      CLEAR     70  63  78 S6        30.02R
FORT WAYNE     CLOUDY    70  63  78 S14       30.06R

$$

INZ028-029-035-036-043>045-051>053-260500-
WEST CENTRAL INDIANA

CITY           SKY/WX    TMP DP  RH WIND       PRES   REMARKS
CRAWFORDSVL +  PTCLDY    66  60  80 S10       30.07S
GREENCASTLE +  PTCLDY    66  61  82 S5        30.08F
LAFAYETTE      PTCLDY    69  65  86 S9        30.05R
TERRE HAUTE    PTCLDY    68  65  90 S7        30.05F

$$

INZ030>032-037>040-046>048-054>057-064-065-260500-
CENTRAL INDIANA

CITY           SKY/WX    TMP DP  RH WIND       PRES   REMARKS
GREENWOOD *+   CLOUDY    68  63  83 S9        30.09R
INDIANAPOLIS   CLOUDY    67  63  87 S9        30.07R
-EAGLE CREEK   MOCLDY    68  64  87 S6        30.07S
KOKOMO *+      MOCLDY    70  63  78 SW12      30.08R
MT COMFORT *+  CLOUDY    68  66  94 S12       30.09S
SHELBYVILLE    CLOUDY    71  64  78 S9        30.09R

$$

INZ033-034-041-042-049-050-058-059-260500-
EAST CENTRAL INDIANA

CITY           SKY/WX    TMP DP  RH WIND       PRES   REMARKS
MUNCIE         CLOUDY    69  63  81 S8        30.09R

$$

INZ060-061-067>069-081>083-085>088-260500-
SOUTHWEST INDIANA

CITY           SKY/WX    TMP DP  RH WIND       PRES   REMARKS
EVANSVILLE     MOCLDY    69  66  90 SE7       30.06F
HUNTINGBURG *+ CLOUDY    66  63  88 S6        30.08F

$$

INZ062-063-066-070>080-084-089>092-260500-
SOUTH CENTRAL AND SOUTHEAST INDIANA

CITY           SKY/WX    TMP DP  RH WIND       PRES   REMARKS
BLOOMINGTON    CLOUDY    67  64  90 S5        30.08F
MADISON *+     MOCLDY    68  63  83 S5        30.13S
SEYMOUR +      CLOUDY    70  66  88 S7        30.10S

$$



USA.gov is the U.S. government's official web portal to all federal, state and local government web resources and services.